Regional Weather Roundup
Issued by NWS Little Rock, AR

Home | Current Version | Previous Version | Text Only | Print | Product List | Glossary Off
Versions: 1 2 3 4 5 6 7 8 9 10 11 12 13 14 15 16 17 18 19 20 21 22 23 24 25 26 27 28 29 30 31 32 33 34 35 36 37 38 39 40 41 42 43 44 45 46 47 48 49 50

000
ASUS44 KLZK 011505
RWRLZK

WEATHER ROUNDUP FOR ARKANSAS
NATIONAL WEATHER SERVICE LITTLE ROCK AR
1000 AM CDT TUE SEP 01 2015

NOTE: "FAIR" INDICATES FEW OR NO CLOUDS BELOW 12,000 FEET WITH NO
SIGNIFICANT WEATHER AND/OR OBSTRUCTIONS TO VISIBILITY.

ARZ001-003-010-029-011600-
NORTHWEST ARKANSAS

CITY           SKY/WX    TMP DP  RH WIND       PRES   REMARKS
FAYETTEVILLE   SUNNY     78  70  76 CALM      30.11S
FORT SMITH     SUNNY     79  68  69 E3        30.08R
BENTONVILLE    SUNNY     81  64  57 SW5       30.12S
ROGERS         SUNNY     81  67  62 SW7       30.12S
SILOAM SPGS    SUNNY     81  64  57 S8        30.09S
HIGHFILL       SUNNY     79  69  71 S7        30.11R
SPRINGDALE     SUNNY     79  68  69 CALM      30.13R
$$

ARZ004-005-016-011600-
NORTH CENTRAL ARKANSAS

CITY           SKY/WX    TMP DP  RH WIND       PRES   REMARKS
BATESVILLE     SUNNY     81  72  74 NE6       30.10S
FLIPPIN        SUNNY     77  66  69 CALM      30.09S
MTN HOME       SUNNY     78  71  79 VRB5      30.11S
$$

ARZ040-041-011600-
WEST CENTRAL ARKANSAS

CITY           SKY/WX    TMP DP  RH WIND       PRES   REMARKS
MENA           SUNNY     81  70  69 CALM      30.11S
MOUNT IDA      SUNNY     80  69  69 CALM      30.08R
$$

ARZ009-017-025-026-028-011600-
NORTHEAST ARKANSAS

CITY           SKY/WX    TMP DP  RH WIND       PRES   REMARKS
JONESBORO      SUNNY     80  71  74 SE7       30.11R
NEWPORT        SUNNY     83  71  66 S7        30.11S HX  87
WALNUT RIDGE   SUNNY     81  70  69 S7        30.11S
BLYTHEVILLE    SUNNY     82  73  74 SE5       30.12S HX  87
$$

ARZ022-023-033-042-044-011600-
CENTRAL ARKANSAS

CITY           SKY/WX    TMP DP  RH WIND       PRES   REMARKS
LITTLE ROCK    PTSUNNY   84  70  62 CALM      30.08S HX  88
N LITTLE ROCK  PTSUNNY   79  72  79 CALM      30.08S
JACKSONVILLE   MOSUNNY   80  70  72 NE2       30.08S
SEARCY         MOSUNNY   82  72  71 S5        30.11S HX  87
HOT SPRINGS    SUNNY     78  70  76 CALM      30.10R
RUSSELLVILLE   SUNNY     81  71  71 MISG      30.08S HX  85
$$

ARZ036-011600-
EAST ARKANSAS

CITY           SKY/WX    TMP DP  RH WIND       PRES   REMARKS
WEST MEMPHIS   SUNNY     83  72  69 SE7       30.09F HX  88
$$

ARZ050-053-066-070-073-011600-
SOUTHWEST ARKANSAS

CITY           SKY/WX    TMP DP  RH WIND       PRES   REMARKS
ARKADELPHIA    FAIR      77  72  84 CALM      30.09R
CAMDEN         CLOUDY    77  66  69 CALM      30.09R
TEXARKANA      PTSUNNY   77  70  79 CALM      30.10R
EL DORADO      CLOUDY    81  68  64 VRB3      30.11R
DE QUEEN       SUNNY     81  70  69 CALM      30.06R
$$

ARZ056-057-069-011600-
SOUTHEAST ARKANSAS

CITY           SKY/WX    TMP DP  RH WIND       PRES   REMARKS
PINE BLUFF     PTSUNNY   80  69  69 CALM      30.09R
STUTTGART      CLOUDY    81  70  69 W18G55    30.08S
MONTICELLO     PTSUNNY   84  69  60 W6        30.09R HX  88

$$




USA.gov is the U.S. government's official web portal to all federal, state and local government web resources and services.